FW6531 Weather Reports


Display with metric or nautical units.
time (UTC)temp
F
wind
direction
speed
MPH
gust
MPH
rain 1hr
in
rain 24hr
in
rain mn
in
humidity
%
barometer
mb
20260901234020 64 103 1.0 4.0 0.00 0.00 0.00 89 1018.4
20260901233517 64 82 0.0 2.0 0.00 0.00 0.00 89 1018.4
20260901233016 64 82 1.0 2.0 0.00 0.00 0.00 89 1018.4
20260901232518 64 79 0.0 3.0 0.00 0.00 0.00 89 1018.4
20260901232015 64 79 0.0 3.0 0.00 0.00 0.00 89 1018.5
20260901231514 64 74 1.0 3.0 0.00 0.00 0.00 89 1018.5
20260901231013 64 79 0.0 3.0 0.00 0.00 0.00 88 1018.4
20260901230513 64 76 0.0 2.0 0.00 0.00 0.00 88 1018.4
20260901230016 64 76 0.0 3.0 0.00 0.00 0.00 88 1018.4
20260901225513 64 76 1.0 4.0 0.00 0.00 0.00 88 1018.4
20260901225013 64 75 0.0 4.0 0.00 0.00 0.00 88 1018.3
20260901224513 65 82 1.0 4.0 0.00 0.00 0.00 88 1018.3
20260901224012 65 133 1.0 7.0 0.00 0.00 0.00 88 1018.4
20260901223513 65 82 2.0 4.0 0.00 0.00 0.00 88 1018.4
20260901223013 65 72 0.0 4.0 0.00 0.00 0.00 87 1018.4
20260901222512 65 83 1.0 4.0 0.00 0.00 0.00 87 1018.5
20260901222012 65 59 0.0 3.0 0.00 0.00 0.00 87 1018.3
20260901221512 65 93 1.0 5.0 0.00 0.00 0.00 87 1018.3
20260901221012 65 98 0.0 5.0 0.00 0.00 0.00 87 1018.3
20260901220510 65 61 2.0 5.0 0.00 0.00 0.00 87 1018.4
20260901220018 65 82 1.0 7.0 0.00 0.00 0.00 87 1018.3
20260901215511 65 120 2.0 6.0 0.00 0.00 0.00 87 1018.2
20260901215014 65 85 2.0 6.0 0.00 0.00 0.00 86 1018.1
20260901214509 66 101 0.0 6.0 0.00 0.00 0.00 86 1018.1
20260901214009 66 78 2.0 6.0 0.00 0.00 0.00 86 1018.0
20260901213509 66 113 1.0 6.0 0.00 0.00 0.00 86 1018.0
20260901213009 66 80 2.0 5.0 0.00 0.00 0.00 86 1017.9
20260901212510 66 64 1.0 5.0 0.00 0.00 0.00 85 1017.9
20260901212009 66 119 1.0 4.0 0.00 0.00 0.00 85 1017.8
20260901211509 66 103 2.0 7.0 0.00 0.00 0.00 86 1017.9
20260901211008 66 107 1.0 7.0 0.00 0.00 0.00 86 1018.1
20260901210510 66 87 2.0 7.0 0.00 0.00 0.00 85 1018.1
20260901210008 66 185 0.0 8.0 0.00 0.00 0.00 85 1018.1
20260901205507 66 90 1.0 8.0 0.00 0.00 0.00 85 1017.8
20260901205007 67 109 1.0 7.0 0.00 0.00 0.00 85 1017.7
20260901204506 67 98 2.0 7.0 0.00 0.00 0.00 84 1017.6
20260901204006 67 98 1.0 8.0 0.00 0.00 0.00 84 1017.5
20260901203507 67 111 3.0 8.0 0.00 0.00 0.00 84 1017.5
20260901203007 67 271 1.0 7.0 0.00 0.00 0.00 83 1017.5
20260901202506 67 167 2.0 7.0 0.00 0.00 0.00 84 1017.4
20260901202009 67 245 0.0 9.0 0.00 0.00 0.00 84 1017.4
20260901201506 67 243 0.0 9.0 0.00 0.00 0.00 83 1017.4
20260901201005 67 45 1.0 9.0 0.00 0.00 0.00 83 1017.5
20260901200506 67 66 2.0 6.0 0.00 0.00 0.00 82 1017.5
20260901200004 68 160 2.0 6.0 0.00 0.00 0.00 82 1017.5
20260901195504 68 253 1.0 6.0 0.00 0.00 0.00 82 1017.5
20260901195006 68 152 1.0 8.0 0.00 0.00 0.00 82 1017.5
20260901194503 68 78 3.0 8.0 0.00 0.00 0.00 82 1017.6
20260901194004 68 76 2.0 6.0 0.00 0.00 0.00 82 1017.5
20260901193504 68 94 2.0 9.0 0.00 0.00 0.00 82 1017.5
20260901193005 68 17 2.0 10.0 0.00 0.00 0.00 82 1017.5
20260901192503 68 72 4.0 11.0 0.00 0.00 0.00 82 1017.7
20260901192003 69 103 5.0 11.0 0.00 0.00 0.00 81 1017.8
20260901191503 69 234 3.0 12.0 0.00 0.00 0.00 81 1017.8
20260901191002 69 250 5.0 12.0 0.00 0.00 0.00 81 1017.7
20260901190502 69 137 3.0 12.0 0.00 0.00 0.00 81 1017.8
20260901190002 69 208 5.0 12.0 0.00 0.00 0.00 81 1017.8
20260901185502 69 124 5.0 10.0 0.00 0.00 0.00 80 1017.8
20260901185003 69 88 2.0 10.0 0.00 0.00 0.00 79 1017.8
20260901184503 69 84 5.0 10.0 0.00 0.00 0.00 79 1017.7
20260901184001 69 123 3.0 11.0 0.00 0.00 0.00 79 1017.8
20260901183602 69 65 3.0 11.0 0.00 0.00 0.00 79 1017.6
20260901183107 69 91 2.0 8.0 0.00 0.00 0.00 79 1017.7
20260901182601 69 61 1.0 6.0 0.00 0.00 0.00 79 1017.5
20260901182100 69 289 1.0 9.0 0.00 0.00 0.00 78 1017.5
20260901182002 69 281 1.0 9.0 0.00 0.00 0.00 78 1017.5
20260901181600 69 128 2.0 9.0 0.00 0.00 0.00 79 1017.5
20260901181059 69 144 2.0 7.0 0.00 0.00 0.00 80 1017.4
20260901180558 69 96 2.0 6.0 0.00 0.00 0.00 82 1017.3
20260901180058 68 69 1.0 5.0 0.00 0.00 0.00 83 1017.4
20260901175558 68 173 1.0 6.0 0.00 0.00 0.00 82 1017.2
20260901175057 67 106 1.0 6.0 0.00 0.00 0.00 81 1017.3
20260901174600 67 115 1.0 4.0 0.00 0.00 0.00 81 1017.3
20260901174057 67 168 2.0 5.0 0.00 0.00 0.00 80 1017.3
20260901173557 68 143 2.0 7.0 0.00 0.00 0.00 78 1017.4
20260901173056 68 135 1.0 7.0 0.00 0.00 0.00 77 1017.5
20260901172556 68 228 3.0 7.0 0.00 0.00 0.00 76 1017.4
20260901172101 69 169 4.0 8.0 0.00 0.00 0.00 74 1017.4
20260901171627 69 171 3.0 6.0 0.00 0.00 0.00 73 1017.3
20260901171059 69 193 2.0 5.0 0.00 0.00 0.00 73 1017.4
20260901170555 69 148 2.0 5.0 0.00 0.00 0.00 74 1017.3
20260901170104 69 90 1.0 5.0 0.00 0.00 0.00 75 1017.4
20260901165654 69 82 0.0 5.0 0.00 0.00 0.00 76 1017.3
20260901165056 69 115 1.0 3.0 0.00 0.00 0.00 76 1017.4
20260901164610 69 91 1.0 3.0 0.00 0.00 0.00 77 1017.5
20260901164052 68 85 0.0 2.0 0.00 0.00 0.00 78 1017.5
20260901163551 68 360 0.0 2.0 0.00 0.00 0.00 77 1017.5
20260901163109 67 360 0.0 3.0 0.00 0.00 0.00 77 1017.5
20260901162551 67 360 1.0 4.0 0.00 0.00 0.00 78 1017.6
20260901162050 67 360 1.0 4.0 0.00 0.00 0.00 77 1017.6
20260901161548 67 355 1.0 3.0 0.00 0.00 0.00 77 1017.6
20260901161048 67 355 2.0 3.0 0.00 0.00 0.00 78 1017.7
20260901160546 66 348 1.0 3.0 0.00 0.00 0.00 78 1017.6
20260901160045 66 342 0.0 3.0 0.00 0.00 0.00 77 1017.7
20260901155547 66 342 1.0 3.0 0.00 0.00 0.00 77 1017.7
20260901155045 66 335 1.0 3.0 0.00 0.00 0.00 77 1017.6
20260901154552 66 330 1.0 5.0 0.00 0.00 0.00 77 1017.6
20260901154044 66 320 3.0 5.0 0.00 0.00 0.00 77 1017.6
20260901153544 66 350 2.0 5.0 0.00 0.00 0.00 77 1017.6
20260901153044 66 17 3.0 5.0 0.00 0.00 0.00 78 1017.5
20260901152543 66 323 1.0 5.0 0.00 0.00 0.00 78 1017.4
20260901152044 66 24 3.0 6.0 0.00 0.00 0.00 77 1017.2
20260901151545 66 17 2.0 6.0 0.00 0.00 0.00 76 1017.1
20260901151044 66 36 2.0 6.0 0.00 0.00 0.00 76 1017.2
20260901150542 66 29 3.0 6.0 0.00 0.00 0.00 77 1017.1
20260901150041 65 31 2.0 8.0 0.00 0.00 0.00 80 1017.1
20260901145540 64 38 4.0 8.0 0.00 0.00 0.00 80 1017.3
20260901145039 63 21 3.0 6.0 0.00 0.00 0.00 80 1017.4
20260901144538 63 345 2.0 5.0 0.00 0.00 0.00 80 1017.4
20260901144036 63 331 1.0 6.0 0.00 0.00 0.00 81 1017.4
20260901143536 62 345 3.0 6.0 0.00 0.00 0.00 81 1017.5
20260901143035 62 347 2.0 5.0 0.00 0.00 0.00 82 1017.6
20260901142534 62 5 2.0 6.0 0.00 0.00 0.00 82 1017.8
20260901142033 62 332 3.0 6.0 0.00 0.00 0.00 82 1017.8
20260901141533 62 331 3.0 8.0 0.00 0.00 0.00 82 1017.8
20260901141036 62 336 4.0 8.0 0.00 0.00 0.00 82 1017.7
20260901140530 61 338 3.0 8.0 0.00 0.00 0.00 81 1017.5
20260901140030 61 24 3.0 8.0 0.00 0.00 0.00 82 1017.5
20260901135529 61 5 1.0 5.0 0.00 0.00 0.00 83 1017.6
20260901135029 61 5 2.0 8.0 0.00 0.00 0.00 83 1017.6
20260901134527 60 355 3.0 5.0 0.00 0.00 0.00 84 1017.7
20260901134025 60 19 2.0 5.0 0.00 0.00 0.00 84 1017.9
20260901133524 60 24 3.0 6.0 0.00 0.00 0.00 84 1017.8
20260901133024 60 355 3.0 9.0 0.00 0.00 0.00 84 1017.7
20260901132524 59 9 3.0 9.0 0.00 0.00 0.00 84 1017.7
20260901132026 59 355 2.0 6.0 0.00 0.00 0.00 85 1017.7
20260901131522 59 5 2.0 6.0 0.00 0.00 0.00 85 1017.7
20260901131022 59 15 3.0 6.0 0.00 0.00 0.00 85 1017.8
20260901130524 59 16 2.0 6.0 0.00 0.00 0.00 85 1017.7
20260901130021 59 344 2.0 6.0 0.00 0.00 0.00 86 1017.8
20260901125522 59 336 3.0 9.0 0.00 0.00 0.00 86 1017.8
20260901125020 59 347 3.0 6.0 0.00 0.00 0.00 86 1017.8
20260901124520 59 24 3.0 6.0 0.00 0.00 0.00 87 1017.9
20260901124019 59 30 3.0 8.0 0.00 0.00 0.00 87 1017.8
20260901123519 59 355 2.0 8.0 0.00 0.00 0.00 88 1017.8
20260901123019 58 355 2.0 6.0 0.00 0.00 0.00 89 1017.6
20260901122518 58 342 3.0 6.0 0.00 0.00 0.00 89 1017.7
20260901122016 58 360 2.0 4.0 0.00 0.00 0.00 90 1017.7
20260901121520 57 345 1.0 4.0 0.00 0.00 0.00 91 1017.8
20260901121016 57 26 2.0 5.0 0.00 0.00 0.00 91 1017.7
20260901120512 57 29 2.0 8.0 0.00 0.00 0.00 92 1017.5
20260901120011 57 344 3.0 8.0 0.00 0.00 0.00 92 1017.6
20260901115510 57 323 2.0 6.0 0.00 0.00 0.00 92 1017.6
20260901115009 57 28 3.0 6.0 0.00 0.00 0.00 93 1017.6
20260901114508 57 355 2.0 5.0 0.00 0.00 0.00 93 1017.6
20260901114007 56 346 2.0 6.0 0.00 0.00 0.00 93 1017.5
20260901113507 56 327 2.0 5.0 0.00 0.00 0.00 93 1017.5
20260901113006 56 319 2.0 6.0 0.00 0.00 0.00 94 1017.5
20260901112504 56 5 3.0 8.0 0.00 0.00 0.00 94 1017.4
20260901112005 56 355 3.0 5.0 0.00 0.00 0.00 94 1017.4
20260901111504 56 324 1.0 6.0 0.00 0.00 0.00 95 1017.4
20260901111004 56 336 2.0 6.0 0.00 0.00 0.00 95 1017.4
20260901110503 56 17 1.0 5.0 0.00 0.00 0.00 95 1017.4
20260901110007 56 334 1.0 5.0 0.00 0.00 0.00 95 1017.3
20260901105503 56 332 1.0 5.0 0.00 0.00 0.00 95 1017.3
20260901105004 56 319 1.0 4.0 0.00 0.00 0.00 95 1017.2
20260901104501 55 344 2.0 4.0 0.00 0.00 0.00 95 1017.2
20260901104001 55 300 1.0 4.0 0.00 0.00 0.00 95 1017.2
20260901103500 55 310 1.0 4.0 0.00 0.00 0.00 95 1017.1
20260901103100 55 321 1.0 3.0 0.00 0.00 0.00 95 1017.1
20260901102559 55 319 0.0 3.0 0.00 0.00 0.00 95 1017.0
20260901102057 55 318 1.0 3.0 0.00 0.00 0.00 95 1016.9
20260901101559 55 318 1.0 3.0 0.00 0.00 0.00 95 1016.9
20260901101057 55 314 1.0 4.0 0.00 0.00 0.00 95 1017.0
20260901100600 55 323 2.0 4.0 0.00 0.00 0.00 95 1017.0
20260901100059 55 301 1.0 3.0 0.00 0.00 0.00 95 1017.0
20260901095555 55 298 0.0 4.0 0.00 0.00 0.00 95 1016.9
20260901095055 55 298 1.0 4.0 0.00 0.00 0.00 95 1016.8
20260901094555 55 306 2.0 4.0 0.00 0.00 0.00 95 1016.9
20260901094055 55 319 2.0 4.0 0.00 0.00 0.00 95 1016.8
20260901093554 56 310 1.0 4.0 0.00 0.00 0.00 95 1016.9
20260901093058 56 319 2.0 4.0 0.00 0.00 0.00 95 1016.9
20260901092557 56 306 1.0 2.0 0.00 0.00 0.00 95 1016.9
20260901092053 56 304 0.0 0.0 0.00 0.00 0.00 95 1016.9
20260901091603 56 304 0.0 2.0 0.00 0.00 0.00 95 1016.9
20260901091053 56 304 0.0 2.0 0.00 0.00 0.00 95 1017.0
20260901090555 56 306 0.0 3.0 0.00 0.00 0.00 95 1017.0
20260901090058 56 306 1.0 3.0 0.00 0.00 0.00 95 1017.1
20260901085551 56 302 1.0 3.0 0.00 0.00 0.00 95 1017.0
20260901085050 56 312 0.0 2.0 0.00 0.00 0.00 95 1016.9
20260901084552 56 313 0.0 3.0 0.00 0.00 0.00 95 1017.0
20260901084050 56 313 1.0 5.0 0.00 0.00 0.00 95 1016.8
20260901083550 56 307 3.0 5.0 0.00 0.00 0.00 95 1016.8
20260901083050 56 313 2.0 4.0 0.00 0.00 0.00 95 1016.9
20260901082550 56 315 1.0 3.0 0.00 0.00 0.00 94 1017.0
20260901082048 56 315 0.0 2.0 0.00 0.00 0.00 94 1016.9
20260901081549 56 315 0.0 2.0 0.00 0.00 0.00 94 1016.8
20260901081047 56 316 0.0 2.0 0.00 0.00 0.00 94 1016.8
20260901080546 56 316 0.0 1.0 0.00 0.00 0.00 94 1016.8
20260901080104 56 316 0.0 1.0 0.00 0.00 0.00 94 1016.9
20260901075545 56 316 0.0 1.0 0.00 0.00 0.00 94 1016.9
20260901075044 57 316 0.0 2.0 0.00 0.00 0.00 94 1017.0
20260901074543 57 316 0.0 3.0 0.00 0.00 0.00 94 1017.0
20260901074042 57 315 1.0 3.0 0.00 0.00 0.00 94 1017.1
20260901073542 57 309 1.0 3.0 0.00 0.00 0.00 94 1017.1
20260901073042 57 301 1.0 3.0 0.00 0.00 0.00 94 1017.1
20260901072545 57 296 1.0 3.0 0.00 0.00 0.00 94 1017.2
20260901072045 57 294 1.0 3.0 0.00 0.00 0.00 94 1017.1
20260901071541 57 313 1.0 3.0 0.00 0.00 0.00 94 1017.1
20260901071042 57 313 1.0 4.0 0.00 0.00 0.00 94 1017.2
20260901070540 57 322 2.0 4.0 0.00 0.00 0.00 94 1017.3
20260901070050 57 335 1.0 4.0 0.00 0.00 0.00 94 1017.1
20260901065539 58 334 2.0 4.0 0.00 0.00 0.00 94 1017.0
20260901065039 58 345 1.0 3.0 0.00 0.00 0.00 94 1017.0
20260901064542 58 350 1.0 3.0 0.00 0.00 0.00 94 1017.1
20260901064039 58 351 1.0 3.0 0.00 0.00 0.00 94 1017.0
20260901063538 58 355 0.0 3.0 0.00 0.00 0.00 94 1017.2
20260901063037 58 350 1.0 3.0 0.00 0.00 0.00 94 1017.2
20260901062537 58 336 1.0 3.0 0.00 0.00 0.00 94 1017.2
20260901062037 58 336 1.0 3.0 0.00 0.00 0.00 94 1017.4
20260901061537 59 336 1.0 2.0 0.00 0.00 0.00 94 1017.3
20260901061037 59 336 0.0 2.0 0.00 0.00 0.00 94 1017.4
20260901060536 59 336 0.0 2.0 0.00 0.00 0.00 94 1017.3
20260901060041 59 336 0.0 5.0 0.00 0.00 0.00 94 1017.3
20260901055535 59 336 1.0 5.0 0.00 0.00 0.00 94 1017.4
20260901055034 58 319 2.0 5.0 0.00 0.00 0.00 94 1017.4
20260901054534 58 169 0.0 2.0 0.00 0.00 0.00 94 1017.5
20260901054034 58 160 0.0 2.0 0.00 0.00 0.00 94 1017.4
20260901053533 58 159 0.0 0.0 0.00 0.00 0.00 94 1017.3
20260901053032 58 159 0.0 0.0 0.00 0.00 0.00 93 1017.2
20260901052531 58 159 0.0 0.0 0.00 0.00 0.00 93 1017.2
20260901052031 58 159 0.0 0.0 0.00 0.00 0.00 93 1017.1
20260901051531 58 159 0.0 0.0 0.00 0.00 0.00 93 1017.1
20260901051031 58 159 0.0 0.0 0.00 0.00 0.00 93 1017.2
20260901050530 58 159 0.0 0.0 0.00 0.00 0.00 93 1017.2
20260901050030 58 159 0.0 0.0 0.00 0.00 0.00 93 1017.2
20260901045529 58 159 0.0 0.0 0.00 0.00 0.00 93 1017.3
20260901045029 58 159 0.0 1.0 0.00 0.00 0.00 93 1017.3
20260901044529 58 159 0.0 1.0 0.00 0.00 0.00 92 1017.2
20260901044031 58 159 0.0 2.0 0.00 0.00 0.00 93 1017.3
20260901043528 58 159 1.0 2.0 0.00 0.00 0.00 92 1017.3
20260901043028 58 159 0.0 2.0 0.00 0.00 0.00 92 1017.3
20260901042528 58 159 0.0 0.0 0.00 0.00 0.00 92 1017.3
20260901042027 58 159 0.0 1.0 0.00 0.00 0.00 92 1017.4
20260901041526 58 159 0.0 2.0 0.00 0.00 0.00 92 1017.4
20260901041026 58 159 0.0 2.0 0.00 0.00 0.00 92 1017.3
20260901040525 58 159 0.0 0.0 0.00 0.00 0.00 92 1017.3
20260901040025 58 159 0.0 0.0 0.00 0.00 0.00 92 1017.4
20260901035526 58 159 0.0 1.0 0.00 0.00 0.00 92 1017.4
20260901035024 58 159 0.0 2.0 0.00 0.00 0.00 92 1017.4
20260901034525 58 159 1.0 2.0 0.00 0.00 0.00 92 1017.4
20260901034025 58 159 1.0 2.0 0.00 0.00 0.00 92 1017.4
20260901033524 58 159 1.0 2.0 0.00 0.00 0.00 92 1017.5
20260901033034 58 159 0.0 2.0 0.00 0.00 0.00 91 1017.5
20260901032523 58 159 0.0 2.0 0.00 0.00 0.00 91 1017.5
20260901032023 58 159 1.0 2.0 0.00 0.00 0.00 91 1017.5
20260901031532 58 159 0.0 2.0 0.00 0.00 0.00 91 1017.6
20260901031022 58 159 1.0 2.0 0.00 0.00 0.00 91 1017.5
20260901030522 58 159 1.0 2.0 0.00 0.00 0.00 91 1017.6
20260901030022 58 159 1.0 2.0 0.00 0.00 0.00 91 1017.5
20260901025522 58 159 1.0 2.0 0.00 0.00 0.00 91 1017.6
20260901025024 58 159 1.0 2.0 0.00 0.00 0.00 91 1017.7
20260901024522 58 159 1.0 2.0 0.00 0.00 0.00 90 1017.7
20260901024022 58 159 1.0 2.0 0.00 0.00 0.00 90 1017.7
20260901023521 58 159 1.0 2.0 0.00 0.00 0.00 90 1017.7
20260901023022 58 159 1.0 2.0 0.00 0.00 0.00 89 1017.7
20260901022520 58 159 1.0 2.0 0.00 0.00 0.00 89 1017.5
20260901022020 58 159 1.0 2.0 0.00 0.00 0.00 88 1017.7
20260901021541 58 159 1.0 2.0 0.00 0.00 0.00 89 1017.7
20260901021020 58 159 0.0 0.0 0.00 0.00 0.00 88 1017.6
20260901020523 59 159 0.0 0.0 0.00 0.00 0.00 88 1017.7
20260901020019 59 159 0.0 0.0 0.00 0.00 0.00 88 1017.6
20260901015519 59 159 0.0 0.0 0.00 0.00 0.00 88 1017.6
20260901015119 59 159 0.0 0.0 0.00 0.00 0.00 88 1017.7
20260901014520 59 159 0.0 0.0 0.00 0.00 0.00 88 1017.5
20260901014019 59 159 0.0 0.0 0.00 0.00 0.00 87 1017.6
20260901013518 59 159 0.0 0.0 0.00 0.00 0.00 87 1017.5
20260901013027 59 159 0.0 1.0 0.00 0.00 0.00 86 1017.5
20260901012517 60 159 0.0 2.0 0.00 0.00 0.00 86 1017.4
20260901012019 60 159 0.0 2.0 0.00 0.00 0.00 86 1017.4
20260901011520 60 159 0.0 2.0 0.00 0.00 0.00 86 1017.5
20260901011117 60 159 0.0 2.0 0.00 0.00 0.00 85 1017.5
20260901010516 60 159 1.0 2.0 0.00 0.00 0.00 85 1017.5
20260901010037 61 159 0.0 2.0 0.00 0.00 0.00 85 1017.6
20260901005517 61 159 0.0 2.0 0.00 0.00 0.00 84 1017.5
20260901005015 61 159 1.0 2.0 0.00 0.00 0.00 84 1017.5
20260901004517 61 159 1.0 2.0 0.00 0.00 0.00 83 1017.4
20260901004015 61 159 0.0 2.0 0.00 0.00 0.00 83 1017.5
20260901003515 61 159 0.0 3.0 0.00 0.00 0.00 83 1017.5
20260901003021 61 159 0.0 3.0 0.00 0.00 0.00 83 1017.4
20260901002515 61 158 0.0 4.0 0.00 0.00 0.00 82 1017.4
20260901002015 61 153 1.0 4.0 0.00 0.00 0.00 82 1017.3
20260901001516 61 234 1.0 4.0 0.00 0.00 0.00 80 1017.3
20260901001014 62 292 1.0 6.0 0.00 0.00 0.00 79 1017.3
20260901000514 62 197 1.0 6.0 0.00 0.00 0.00 79 1017.3
20260901000014 62 218 1.0 3.0 0.00 0.00 0.00 78 1017.2
20260831235518 62 223 0.0 6.0 0.00 0.00 0.00 77 1017.2
20260831235017 62 277 0.0 6.0 0.00 0.00 0.00 76 1017.2
20260831234516 62 215 1.0 4.0 0.00 0.00 0.00 76 1017.2